Location: Arrodets-la-Barthe
(43.0306°N, 0.2829°E)
Time: 08:52:20
(UTC+00:00)

CUBEBUG 2 - Pass Details

Date: 08 April 2023
Orbit: 577 x 685 km, 97.8° (Epoch: 02 June)

Event Time Altitude Azimuth Distance (km) Brightness Sun altitude
Rises 04:12:19 0° 351° (N) 3,044 ? -14.3°
Reaches altitude 10° 04:16:41 10° 311° (NW) 2,098 ? -13.6°
Maximum altitude 04:17:28 10° 302° (WNW) 2,066 ? -13.4°
Drops below altitude 10° 04:18:14 10° 292° (WNW) 2,086 ? -13.3°
Enters shadow 04:18:15 10° 292° (WNW) 2,087 ? -13.3°
